Regional Weather Roundup
Issued by NWS Boston, MA

Current Version | Previous Version | Text Only | Print | Product List | Glossary Off
Versions: 1 2 3 4 5 6 7 8 9 10 11 12 13 14 15 16 17 18 19 20 21 22 23 24 25 26 27

000
ASUS41 KBOX 192210
RWRBOX

REGIONAL WEATHER ROUNDUP
NATIONAL WEATHER SERVICE TAUNTON MA
600 PM EDT WED JUL 19 2017

NOTE:  "FAIR" INDICATES FEW OR NO CLOUDS BELOW 12,000 FEET WITH NO
SIGNIFICANT WEATHER AND/OR OBSTRUCTIONS TO VISIBILITY.

MAZALL-192300-
EASTERN MASSACHUSETTS

CITY           SKY/WX    TMP DP  RH WIND       PRES   REMARKS
BOSTON         MOSUNNY   90  65  43 W12G18    29.90S HX  92
BEVERLY        MOSUNNY   89  65  44 W7        29.90S HX  91
LAWRENCE       MOSUNNY   91  66  43 W12       29.92S HX  93
BEDFORD        MOSUNNY   89  63  41 W10       29.90S HX  90
BLUE HILL        N/A     88  64  44 W9G21     29.93S
NORWOOD        SUNNY     90  67  46 W7        29.90S HX  93
MARSHFIELD     MOSUNNY   86  75  70 SW9       29.91S HX  95
PLYMOUTH       SUNNY     84  70  62 SW12      29.93S
TAUNTON        SUNNY     85  72  65 SW12G17   29.92S HX  91
NEW BEDFORD    SUNNY     82  72  71 SW15      29.93F
$$

MAZALL-192300-
CAPE COD AND THE ISLANDS

CITY           SKY/WX    TMP DP  RH WIND       PRES   REMARKS
FALMOUTH       SUNNY     79  72  78 SW17G28   29.96S
HYANNIS        SUNNY     81  73  76 SW14G23   29.94S
CHATHAM        MOSUNNY   78  75  90 SW9G20    29.96F
PROVINCETOWN   SUNNY     78  72  81 SW16G23   29.93F
NANTUCKET      PTSUNNY   74  73  97 SW9       29.97S
MARTHAS VNYRD  MOSUNNY   78  74  87 SW15      29.96F
$$

MAZALL-192300-
CENTRAL AND WESTERN MASSACHUSETTS

CITY           SKY/WX    TMP DP  RH WIND       PRES   REMARKS
WORCESTER      SUNNY     85  59  41 W12       29.97F
FITCHBURG      SUNNY     90  61  37 W7        29.94S HX  90
ORANGE         SUNNY     87  62  43 NW9       29.95S
SPRINGFIELD    MOSUNNY   89  64  43 NW8       29.93S HX  90
WESTFIELD      SUNNY     89  65  44 W10G16    29.94S HX  91
NORTH ADAMS    SUNNY     82  60  47 VRB7      29.98R
PITTSFIELD     MOSUNNY   81  63  54 NW10      30.00S
$$

RIZALL-192300-
RHODE ISLAND

CITY           SKY/WX    TMP DP  RH WIND       PRES   REMARKS
PROVIDENCE     MOSUNNY   86  74  67 SW14      29.93F HX  94
NEWPORT        SUNNY     79  74  84 S12G17    29.95F
BLOCK ISLAND   SUNNY     79  73  82 SW14G21   29.97F
WESTERLY       SUNNY     82  73  74 S12       29.96F
$$

CTZALL-192300-
CONNECTICUT

CITY           SKY/WX    TMP DP  RH WIND       PRES   REMARKS
BRADLEY INTL   MOSUNNY   91  62  37 NW8       29.94S HX  91
HARTFORD       SUNNY     91  63  39 W8        29.92F HX  92
BRIDGEPORT     SUNNY     93  61  34 W8        29.94F HX  93
DANBURY        SUNNY     88  62  41 SW8       29.98S
GROTON         SUNNY     79  72  79 SW8       29.94F
NEW HAVEN      SUNNY     89  64  43 W6        29.95S HX  90
CHESTER        FAIR      88  70  55 CALM      29.96S HX  92
MERIDEN        SUNNY     88  62  41 W8        29.94S
WILLIMANTIC    SUNNY     91  64  40 W6        29.94S HX  92
OXFORD         SUNNY     86  59  39 W5        30.00S
$$

MEZ002-015-021-024-NHZ003-005-008-011-012-014-VTZ005-008-192300-
NORTHERN NEW ENGLAND

CITY           SKY/WX    TMP DP  RH WIND       PRES   REMARKS
PORTLAND ME    MOSUNNY   79  69  71 S10G18    29.91F
BANGOR ME      MOSUNNY   81  68  64 S9        29.89F
CONCORD NH     SUNNY     89  61  38 W9        29.92S
MANCHESTER NH  MOSUNNY   89  59  36 W12G18    29.90S
NASHUA NH      SUNNY     89  66  46 W8        29.92S HX  91
PORTSMOUTH NH  MOSUNNY   83  72  69 CALM      29.89S
JAFFREY NH     SUNNY     85  60  42 W8        29.98S
KEENE NH         N/A    N/A N/A N/A MISG        N/A
BURLINGTON VT  CLOUDY    85  63  47 W3        29.94F
MT. WASHINGTON PTSUNNY   55  48  76 W26G36      N/A
$$

NYZ052-076-192300-
EASTERN NEW YORK

CITY           SKY/WX    TMP DP  RH WIND       PRES   REMARKS
ALBANY         PTSUNNY   83  63  50 NW7       29.97S
NEW YORK CITY  MOSUNNY   92  67  43 NW7       29.94F HX  95
$$

ANZALL-192300-
MARINE OBSERVATIONS

STATION/POSITION TIME  TEMP    WIND        PRES    VSBY  WAVE
                       AIR SEA DIR/SP/G                  HT/PER
                 (UTC) (F)     (DEG/KT/KT) (MB)    (MI)  (FT/S)
BOSTON BUOY      2050   72 70  130/  6/  8 1012.6          1/ 6
BUZZARDS BAY     2200   74     220/ 18/ 19 1014.5F
NANTUCKET SOUND  2150      72              1014.2F         1/ 3
MASS BAY-STELLWA 2104   72 66  160/  8/  8 1011.9F         1/ 6
ISLE OF SHOALS   2200   79     190/ 12/ 12 1012.1S
S OF BLOCK IS    2155      73                N/A           3/ 6
$$

......................KEY.........................
  SKY/WX - SKY CONDITION/PRESENT WEATHER
  TMP    - TEMPERATURE IN FAHRENHEIT
  DWPT   - DEWPOINT IN FAHRENHEIT
  RH     - RELATIVE HUMIDITY IN PERCENT
  WIND   - DIRECTION AND SPEED IN MPH
  PRES   - MEAN SEA LEVEL PRESSURE IN INCHES OF HG
  WCI    - WIND CHILL INDEX
  VSB    - VISIBILITY IN MILES
  HX     - HEAT INDEX
  TC     - TEMPERATURE IN CELSIUS
  VRB    - VARIABLE WIND DIRECTION
  N/A    - NOT AVAILABLE




USA.gov is the U.S. government's official web portal to all federal, state and local government web resources and services.